Regional Weather Roundup
Issued by NWS

Home | Current Version | Previous Version | Graphics & Text | Print | Product List | Glossary On
Versions: 1 2 3 4 5 6 7 8 9 10 11 12 13 14 15 16 17 18 19 20 21 22 23 24 25 26 27 28 29 30 31 32 33 34 35 36 37 38 39 40 41 42 43 44 45 46 47 48 49 50
000
ASUS43 KOAX 220910
RWRNE

WEATHER ROUNDUP FOR NEBRASKA
NATIONAL WEATHER SERVICE OMAHA NE
400 AM CDT SUN OCT 22 2017

NOTES: SATELLITE DATA IS BEING USED TO AUGMENT CLOUD COVER ABOVE
       12000 FEET.
       "FAIR" INDICATES FEW OR NO CLOUDS BELOW 12,000 FEET WITH NO
       SIGNIFICANT WEATHER AND/OR OBSTRUCTIONS TO VISIBILITY.


NEZ001>004-019>022-054>056-221000-
NEBRASKA PANHANDLE

CITY           SKY/WX    TMP DP  RH WIND       PRES   REMARKS
SCOTTSBLUFF    CLEAR     42  19  39 W10       30.08R
ALLIANCE       CLEAR     25  17  72 W9        30.06S HAZE    WCI  15
CHADRON        CLEAR     25  14  63 E3        30.04S
GORDON         FAIR      31  19  61 W5        30.03S WCI  26
KIMBALL        CLEAR     36  17  47 CALM      30.12R
SIDNEY         CLEAR     26  17  68 NW9       30.12R WCI  17
$$

NEZ057>060-069>072-079>082-221000-
SOUTHWEST NEBRASKA

CITY           SKY/WX    TMP DP  RH WIND       PRES   REMARKS
NORTH PLATTE   CLEAR     29  26  89 NW6       30.10R WCI  23
IMPERIAL       CLEAR     41  21  44 NW13      30.11S
LEXINGTON      CLEAR     32  26  80 W7        30.08R WCI  25
MCCOOK         CLEAR     33  24  69 SW6       30.12R WCI  28
OGALLALA       CLEAR     31  24  75 W9        30.10F WCI  23
$$

NEZ005>010-023>029-035>040-094-221000-
NORTH CENTRAL NEBRASKA

CITY           SKY/WX    TMP DP  RH WIND       PRES   REMARKS
VALENTINE      CLEAR     31  27  85 CALM      30.04R
AINSWORTH      CLEAR     33  30  86 SW5       30.04R WCI  29
BROKEN BOW     CLEAR     28  25  88 CALM      30.06R
O`NEILL        CLEAR     36  32  84 W9        30.03R WCI  29
ORD            CLEAR     33  30  88 W3        30.04S
THEDFORD       CLEAR     32  26  78 CALM      30.07S
$$

NEZ041-046>049-061>064-073>077-083>087-221000-
SOUTH CENTRAL NEBRASKA

CITY           SKY/WX    TMP DP  RH WIND       PRES   REMARKS
GRAND ISLAND   CLEAR     37  35  92 SW5       30.06R WCI  33
AURORA         CLEAR     37  35  90 W6        30.05S WCI  33
HASTINGS       CLEAR     39  33  79 SW6       30.08R WCI  35
HEBRON         CLEAR     42  38  86 W3        30.08R
HOLDREGE       CLEAR     35  28  75 NW5       30.09R WCI  31
KEARNEY        CLEAR     36  28  73 W7        30.08R WCI  30
YORK           CLEAR     37  37 100 W8        30.05S WCI  31
$$

NEZ011>018-030>034-042>045-221000-
NORTHEAST NEBRASKA

CITY           SKY/WX    TMP DP  RH WIND       PRES   REMARKS
NORFOLK        CLEAR     38  32  79 CALM      30.02R
ALBION         CLEAR     32  31  96 CALM      30.03R
BLAIR          MOCLDY    47  40  76 CALM      30.01R
COLUMBUS       CLEAR     37  35  92 W3        30.04R
FREMONT        PTCLDY    42  39  88 W5        30.02R
TEKAMAH        CLOUDY    43  40  89 CALM      30.02R
WAYNE          CLEAR     35  33  91 S5        30.02R WCI  31
$$

NEZ050>053-065>068-078-088>093-221000-
SOUTHEAST NEBRASKA

CITY           SKY/WX    TMP DP  RH WIND       PRES   REMARKS
LINCOLN        CLOUDY    47  40  76 W3        30.04R
OMAHA EPPLEY   MOCLDY    48  40  73 NW5       30.01S
BEATRICE       PTCLDY    46  42  86 CALM      30.04R
FALLS CITY     CLOUDY    50  43  77 NW9       30.00S
NEBRASKA CITY  CLOUDY    49  42  77 W7        30.01S
PLATTSMOUTH    CLOUDY    49  42  79 W6        30.01F
$$

NEZ044-045-051>053-067-221000-
OMAHA AREA

CITY           SKY/WX    TMP DP  RH WIND       PRES   REMARKS
OMAHA EPPLEY   MOCLDY    48  40  73 NW5       30.01S
BLAIR          MOCLDY    47  40  76 CALM      30.01R
FREMONT        PTCLDY    42  39  88 W5        30.02R
MILLARD        MOCLDY    49  43  81 CALM      30.02S
OFFUTT AFB     CLOUDY    49  40  73 W7        30.01R
PLATTSMOUTH    CLOUDY    49  42  79 W6        30.01F
WAHOO          FAIR      44  40  85 CALM      30.02S
$$




USA.gov is the U.S. government's official web portal to all federal, state and local government web resources and services.